Tracking 29892 objects as of 21-Nov-2024
HD Live streaming from Space Station
objects crossing your sky now

WESTFORD NEEDLES

Track WESTFORD NEEDLES now!
10-day predictions
WESTFORD NEEDLES is classified as:


NORAD ID: 18688
Int'l Code: 1963-014DM
Perigee: 3,622.7 km
Apogee: 3,682.4 km
Inclination: 87.3 °
Period: 166.5 minutes
Semi major axis: 10023 km
RCS: 0.0937 m2 (small)
Launch date: May 9, 1963
Source: United States (US)
Launch site: AIR FORCE WESTERN TEST RANGE (AFWTR)
Your satellite tracking list
Your tracking list is empty




NASA's NSSDC Master Catalog

Two Line Element Set (TLE):
1 18688U 63014DM  24316.53648664  .00000003  00000-0  13131-3 0  9998
2 18688  87.3218 257.8692 0029779 329.8053 158.7321  8.65102531 69042
Source of the keplerian elements: AFSPC